User: anonymous   Login
Location: Unspecified
(0.0000°N, 0.0000°E)
Time: 23:00:52
(UTC+00:00)
Language:

STARLINK-11643 [DTC] - Orbit

View from above orbital plane
View from above orbital plane
View from above satellite
View from above satellite

Ground track
Ground track

The orbit is defined by the following mean orbital elements,

1 63192U          26145.57848853 +.00000000 +00000-0 +11714-2 0 00006
2 63192  42.9987 216.4465 0000729  26.7965 333.2941 15.70831790    09
Epoch (UTC): 25 May 2026 13:53:01
Eccentricity: 0.0000729
inclination: 42.9987°
perigee height: 356 km
apogee height: 357 km
right ascension of ascending node: 216.4465°
argument of perigee: 26.7965°
revolutions per day: 15.70831790
mean anomaly at epoch: 333.2941°

The dashed part of the orbit path shows where the satellite is in the earth's shadow,  

DLR